{"data":{"norad_id":51650,"epoch":"2026-05-25T03:01:21.335232Z","epoch_age_seconds":57960,"freshness":"FRESH","line1":"1 51650U 22012AE  26145.12594138  .00000019  00000+0  17048-4 0  9998","line2":"2 51650  87.9152  10.4661 0001788  89.0980 271.0357 13.17649515210636","mean_motion":13.17649515,"eccentricity":0.0001788,"inclination_deg":87.9152,"raan_deg":10.4661,"arg_perigee_deg":89.098,"mean_anomaly_deg":271.0357,"bstar":1.7048e-5,"rev_number":21063,"period_min":109.28551057069,"perigee_km":1192.3574404308,"apogee_km":1195.0651333782,"semimajor_km":7571.8482869045,"source":"CELESTRAK","updated_at":"2026-05-25T13:38:22.582300Z"}}